Weather observations for the past three days for
Brookneal/Campbell County Airport
| Date | Time (edt) | Wind (kph) | Vis. (km) | Weather | Sky Cond. | Temperature (ºC) | Relative Humidity | Wind Chill (°C) | Heat Index (°C) | Pressure | Precipitation (cm) | ||||||
|---|---|---|---|---|---|---|---|---|---|---|---|---|---|---|---|---|---|
| Air | Dwpt | 6 hour | altimeter (cm) | sea level (mb) | 1 hr | 3 hr | 6 hr | ||||||||||
| Max. | Min. | ||||||||||||||||
| 02 | 11:55 | NW 9 | 16.09 | Overcast | OVC075 | 13 | 2 | 47% | 76.1 | 0.0 | |||||||
| 02 | 11:35 | Calm | 16.09 | Overcast | OVC075 | 13 | 2 | 47% | 76.07 | 0.0 | |||||||
| 02 | 11:15 | NE 7 | 16.09 | Overcast | OVC075 | 13 | 1 | 44% | 76.07 | 0.0 | |||||||
| 02 | 10:55 | E 7 | 16.09 | Overcast | OVC075 | 13 | 1 | 44% | 76.1 | 0.0 | |||||||
| 02 | 10:35 | NE 6 | 16.09 | Overcast | OVC065 | 13 | 0 | 41% | 76.07 | 0.0 | |||||||
| 02 | 10:15 | NE 7 | 16.09 | Overcast | OVC065 | 12 | 0 | 44% | 76.07 | 0.0 | |||||||
| 02 | 09:55 | NE 7 | 16.09 | Overcast | OVC065 | 12 | 1 | 47% | 76.1 | 0.0 | |||||||
| 02 | 09:35 | NE 7 | 16.09 | Overcast | OVC065 | 12 | 0 | 44% | 76.1 | 0.0 | |||||||
| 02 | 09:15 | NW 6 | 16.09 | Overcast | OVC065 | 12 | 0 | 44% | 76.07 | 0.0 | |||||||
| 02 | 08:55 | NW 9 | 16.09 | Overcast | OVC065 | 12 | 2 | 51% | 76.05 | 0.0 | |||||||
| 02 | 08:35 | E 15 | 16.09 | Overcast | OVC065 | 11 | 7 | 77% | 76.05 | 0.0 | |||||||
| 02 | 08:15 | E 7 | 16.09 | Overcast | OVC065 | 11 | 7 | 77% | 76.05 | 0.0 | |||||||
| 02 | 07:55 | Calm | 16.09 | Overcast | OVC065 | 11 | 7 | 77% | 76.02 | 0.0 | |||||||
| 02 | 07:35 | S 13 | 16.09 | Mostly Cloudy | BKN065 BKN090 | 9 | 7 | 87% | 7 | 76.02 | 0.0 | ||||||
| 02 | 07:15 | SE 9 | 16.09 | Mostly Cloudy | BKN090 | 8 | 7 | 93% | 7 | 76 | 0.0 | ||||||
| 02 | 06:55 | SE 9 | 16.09 | Fair | CLR | 8 | 7 | 93% | 7 | 76 | 0.0 | ||||||
| 02 | 06:35 | SE 9 | 16.09 | Fair | CLR | 8 | 6 | 87% | 7 | 76.02 | 0.0 | ||||||
| 02 | 06:15 | S 9 | 16.09 | Partly Cloudy | SCT090 | 8 | 6 | 87% | 7 | 76.02 | 0.0 | ||||||
| 02 | 05:55 | S 9 | 16.09 | Mostly Cloudy | BKN090 | 8 | 7 | 93% | 7 | 76.02 | 0.0 | ||||||
| 02 | 05:35 | S 9 | 16.09 | Partly Cloudy | SCT090 | 7 | 6 | 93% | 5 | 76 | 0.0 | ||||||
| 02 | 05:15 | Calm | 16.09 | Fair | CLR | 8 | 6 | 87% | 76 | 0.0 | |||||||
| 02 | 04:55 | Calm | 16.09 | Fair | CLR | 8 | 7 | 93% | 76 | 0.0 | |||||||
| 02 | 04:35 | E 7 | 16.09 | Fair | CLR | 8 | 7 | 93% | 7 | 75.97 | 0.0 | ||||||
| 02 | 04:15 | S 9 | 16.09 | Fair | CLR | 8 | 7 | 93% | 7 | 75.95 | 0.0 | ||||||
| 02 | 03:55 | S 9 | 16.09 | Fair | CLR | 8 | 7 | 93% | 7 | 75.95 | 0.0 | ||||||
| 02 | 03:35 | S 9 | 16.09 | Fair | CLR | 8 | 7 | 93% | 7 | 75.95 | 0.0 | ||||||
| 02 | 03:15 | S 9 | 16.09 | Fair | CLR | 8 | 7 | 93% | 7 | 75.92 | 0.0 | ||||||
| 02 | 02:55 | S 9 | 16.09 | Fair | CLR | 8 | 7 | 93% | 7 | 75.92 | 0.0 | ||||||
| 02 | 02:35 | SE 9 | 16.09 | Fair | CLR | 8 | 7 | 93% | 7 | 75.95 | 0.0 | ||||||
| 02 | 02:15 | SE 6 | 16.09 | Fair | CLR | 9 | 7 | 87% | 75.95 | 0.0 | |||||||
| 02 | 01:55 | E 13 | 16.09 | Fair | CLR | 9 | 7 | 87% | 7 | 75.92 | 0.0 | ||||||
| 02 | 01:35 | Calm | 16.09 | Fair | CLR | 10 | 7 | 82% | 75.95 | 0.0 | |||||||
| 02 | 01:15 | S 13 | 16.09 | Fair | CLR | 10 | 8 | 88% | 8 | 75.97 | 0.0 | ||||||
| 02 | 00:55 | S 11 | 16.09 | Fair | CLR | 11 | 8 | 82% | 75.95 | 0.0 | |||||||
| 02 | 00:35 | S 15 | 16.09 | Fair | CLR | 11 | 8 | 82% | 75.95 | 0.0 | |||||||
| 02 | 00:15 | S 15 | 16.09 | Fair | CLR | 12 | 8 | 77% | 75.97 | 0.0 | |||||||
| 01 | 23:55 | S 19 | 16.09 | Fair | CLR | 12 | 7 | 72% | 75.97 | 0.0 | |||||||
| 01 | 23:35 | S 13 | 16.09 | Fair | CLR | 12 | 7 | 72% | 75.97 | 0.0 | |||||||
| 01 | 23:15 | S 17 | 16.09 | Fair | CLR | 13 | 7 | 67% | 75.95 | 0.0 | |||||||
| 01 | 22:55 | S 17 | 16.09 | Fair | CLR | 13 | 7 | 67% | 75.95 | 0.0 | |||||||
| 01 | 22:35 | S 19 | 16.09 | Fair | CLR | 14 | 7 | 63% | 75.95 | 0.0 | |||||||
| 01 | 22:15 | S 19 | 16.09 | Partly Cloudy | SCT090 | 14 | 7 | 63% | 75.92 | 0.0 | |||||||
| 01 | 21:55 | S 22 | 16.09 | Overcast | OVC100 | 15 | 7 | 59% | 75.92 | 0.0 | |||||||
| 01 | 21:35 | S 19 | 16.09 | Overcast | OVC100 | 15 | 7 | 59% | 75.92 | 0.0 | |||||||
| 01 | 21:15 | S 17 | 16.09 | Overcast | OVC110 | 15 | 7 | 59% | 75.92 | 0.0 | |||||||
| 01 | 20:55 | SE 15 | 16.09 | Overcast | OVC110 | 15 | 7 | 59% | 75.87 | 0.0 | |||||||
| 01 | 20:35 | SE 17 | 16.09 | Mostly Cloudy | BKN110 | 14 | 7 | 63% | 75.84 | 0.0 | |||||||
| 01 | 20:15 | SE 7 | 16.09 | Fair | CLR | 15 | 7 | 59% | 75.79 | 0.0 | |||||||
| 01 | 19:55 | SE 7 | 16.09 | Fair | CLR | 17 | 6 | 49% | 75.79 | 0.0 | |||||||
| 01 | 19:35 | S 15 | 16.09 | Fair | CLR | 18 | 6 | 46% | 75.82 | 0.0 | |||||||
| 01 | 19:15 | S 17 G 28 | 16.09 | Fair | CLR | 18 | 6 | 46% | 75.79 | 0.0 | |||||||
| 01 | 18:55 | S 22 G 35 | 16.09 | Fair | CLR | 18 | 5 | 43% | 75.79 | 0.0 | |||||||
| 01 | 18:35 | S 26 | 16.09 | Fair | CLR | 19 | 5 | 40% | 75.82 | 0.0 | |||||||
| 01 | 18:15 | S 26 G 35 | 16.09 | Fair | CLR | 20 | 5 | 38% | 75.82 | 0.0 | |||||||
| 01 | 17:55 | S 26 | 16.09 | Fair | CLR | 20 | 5 | 38% | 75.84 | 0.0 | |||||||
| 01 | 17:35 | S 24 G 41 | 16.09 | Fair | CLR | 20 | 4 | 35% | 75.84 | 0.0 | |||||||
| 01 | 17:15 | S 20 G 30 | 16.09 | Fair | CLR | 21 | 4 | 33% | 75.84 | 0.0 | |||||||
| 01 | 16:55 | S 20 G 31 | 16.09 | Fair | CLR | 21 | 4 | 33% | 75.87 | 0.0 | |||||||
| 01 | 16:35 | S 15 G 33 | 16.09 | Fair | CLR | 20 | 4 | 35% | 75.87 | 0.0 | |||||||
| 01 | 16:15 | S 17 G 31 | 16.09 | Fair | CLR | 20 | 4 | 35% | 75.9 | 0.0 | |||||||
| 01 | 15:55 | S 19 G 30 | 16.09 | Fair | CLR | 20 | 3 | 33% | 75.92 | 0.0 | |||||||
| 01 | 15:35 | S 17 G 33 | 16.09 | Fair | CLR | 20 | 3 | 33% | 75.95 | 0.0 | |||||||
| 01 | 15:15 | S 31 G 41 | 16.09 | Partly Cloudy | SCT090 | 20 | 3 | 33% | 75.97 | 0.0 | |||||||
| 01 | 14:55 | SE 20 G 33 | 16.09 | Partly Cloudy | SCT090 | 20 | 3 | 33% | 76 | 0.0 | |||||||
| 01 | 14:35 | S 17 G 33 | 16.09 | Partly Cloudy | SCT090 | 18 | 2 | 34% | 76.02 | 0.0 | |||||||
| 01 | 13:55 | S 17 G 35 | 16.09 | Partly Cloudy | SCT100 | 18 | 1 | 32% | 76.05 | 0.0 | |||||||
| 01 | 13:35 | SE 17 G 31 | 16.09 | Fair | CLR | 18 | 2 | 34% | 76.1 | 0.0 | |||||||
| 01 | 13:15 | S 11 | 16.09 | Fair | CLR | 17 | 2 | 37% | 76.12 | 0.0 | |||||||
| 01 | 12:55 | S 11 G 28 | 16.09 | Fair | CLR | 17 | 2 | 37% | 76.15 | 0.0 | |||||||
| 01 | 12:35 | NE 7 | 16.09 | Fair | CLR | 16 | 2 | 39% | 76.15 | 0.0 | |||||||
| 01 | 12:15 | S 6 | 16.09 | Fair | CLR | 16 | 2 | 39% | 76.17 | 0.0 | |||||||
| 01 | 11:55 | SE 7 | 16.09 | Fair | CLR | 16 | 2 | 39% | 76.2 | 0.0 | |||||||
| 01 | 11:35 | S 20 | 16.09 | Fair | CLR | 16 | 2 | 39% | 76.23 | 0.0 | |||||||
| 01 | 11:15 | E 6 G 30 | 16.09 | Fair | CLR | 15 | 1 | 39% | 76.23 | 0.0 | |||||||
| 01 | 10:55 | SE 13 G 26 | 16.09 | Fair | CLR | 15 | 1 | 39% | 76.23 | 0.0 | |||||||
| 01 | 10:35 | SE 13 | 16.09 | Fair | CLR | 15 | 1 | 39% | 76.23 | 0.0 | |||||||
| 01 | 10:15 | E 17 | 16.09 | Fair | CLR | 14 | 2 | 44% | 76.25 | 0.0 | |||||||
| 01 | 09:55 | SE 9 | 16.09 | Fair | CLR | 13 | 3 | 51% | 76.25 | 0.0 | |||||||
| 01 | 09:35 | SE 11 | 16.09 | Fair | CLR | 13 | 3 | 51% | 76.25 | 0.0 | |||||||
| 01 | 09:15 | E 9 | 16.09 | Fair | CLR | 12 | 3 | 54% | 76.25 | 0.0 | |||||||
| 01 | 08:55 | E 9 | 16.09 | Fair | CLR | 11 | 4 | 62% | 76.25 | 0.0 | |||||||
| 01 | 08:35 | Calm | 16.09 | Fair | CLR | 10 | 5 | 71% | 76.25 | 0.0 | |||||||
| 01 | 08:15 | Calm | 16.09 | Fair | CLR | 8 | 5 | 82% | 76.25 | 0.0 | |||||||
| 01 | 07:55 | SE 6 | 16.09 | Fair | CLR | 6 | 3 | 81% | 76.25 | 0.0 | |||||||
| 01 | 07:35 | Calm | 16.09 | Fair | CLR | 5 | 4 | 93% | 76.23 | 0.0 | |||||||
| 01 | 07:15 | E 13 | 16.09 | Fair | CLR | 3 | 2 | 93% | 0 | 76.23 | 0.0 | ||||||
| 01 | 06:55 | E 11 | 16.09 | Fair | CLR | 3 | 2 | 93% | 0 | 76.2 | 0.0 | ||||||
| 01 | 06:35 | E 11 | 16.09 | Fair | CLR | 3 | 2 | 93% | 0 | 76.2 | 0.0 | ||||||
| 01 | 06:15 | NE 6 | 16.09 | Fair | CLR | 3 | 2 | 93% | 76.17 | 0.0 | |||||||
| 01 | 05:55 | Calm | 16.09 | Fair | CLR | 2 | 2 | 100% | 76.17 | 0.0 | |||||||
| 01 | 05:35 | E 9 | 16.09 | Fair | CLR | 3 | 2 | 93% | 1 | 76.2 | 0.0 | ||||||
| 01 | 05:15 | SE 9 | 16.09 | Fair | CLR | 4 | 2 | 87% | 2 | 76.2 | 0.0 | ||||||
| 01 | 04:55 | S 9 | 16.09 | Fair | CLR | 4 | 2 | 87% | 2 | 76.2 | 0.0 | ||||||
| 01 | 04:35 | S 6 | 16.09 | Fair | CLR | 5 | 3 | 87% | 76.17 | 0.0 | |||||||
| 01 | 04:15 | S 6 | 16.09 | Fair | CLR | 5 | 3 | 87% | 76.17 | 0.0 | |||||||
| 01 | 03:55 | S 9 | 16.09 | Fair | CLR | 6 | 2 | 76% | 4 | 76.15 | 0.0 | ||||||
| 01 | 03:35 | SE 15 | 16.09 | Fair | CLR | 6 | 3 | 81% | 3 | 76.15 | 0.0 | ||||||
| 01 | 03:15 | SE 9 | 16.09 | Fair | CLR | 6 | 3 | 81% | 4 | 76.15 | 0.0 | ||||||
| 01 | 02:55 | Calm | 16.09 | Fair | CLR | 7 | 3 | 76% | 76.15 | 0.0 | |||||||
| 01 | 02:35 | SE 9 | 16.09 | Fair | CLR | 7 | 3 | 76% | 5 | 76.15 | 0.0 | ||||||
| 01 | 02:15 | N 7 | 16.09 | Fair | CLR | 7 | 3 | 76% | 6 | 76.12 | 0.0 | ||||||
| 01 | 01:55 | S 15 | 16.09 | Fair | CLR | 8 | 3 | 71% | 6 | 76.15 | 0.0 | ||||||
| 01 | 01:35 | NE 9 | 16.09 | Fair | CLR | 9 | 3 | 66% | 8 | 76.12 | 0.0 | ||||||
| 01 | 01:15 | NE 7 | 16.09 | Fair | CLR | 10 | 2 | 58% | 9 | 76.12 | 0.0 | ||||||
| 01 | 00:55 | E 11 | 16.09 | Fair | CLR | 10 | 2 | 58% | 9 | 76.12 | 0.0 | ||||||
| 01 | 00:35 | NE 9 | 16.09 | Fair | CLR | 11 | 2 | 54% | 76.12 | 0.0 | |||||||
| 01 | 00:15 | E 11 | 16.09 | Fair | CLR | 11 | 2 | 54% | 76.1 | 0.0 | |||||||
| 30 | 23:55 | NE 9 | 16.09 | Fair | CLR | 11 | 1 | 50% | 76.07 | 0.0 | |||||||
| 30 | 23:35 | NE 19 | 16.09 | Fair | CLR | 11 | 1 | 50% | 76.07 | 0.0 | |||||||
| 30 | 23:15 | N 7 | 16.09 | Fair | CLR | 12 | 1 | 47% | 76.05 | 0.0 | |||||||
| 30 | 22:55 | E 6 | 16.09 | Fair | CLR | 12 | 0 | 44% | 76.05 | 0.0 | |||||||
| 30 | 22:35 | Calm | 16.09 | Fair | CLR | 12 | 1 | 47% | 76.02 | 0.0 | |||||||
| 30 | 22:15 | Calm | 16.09 | Fair | CLR | 13 | 0 | 41% | 76.02 | 0.0 | |||||||
| 30 | 21:55 | NE 9 | 16.09 | Fair | CLR | 13 | 1 | 44% | 76 | 0.0 | |||||||
| 30 | 21:35 | Calm | 16.09 | Fair | CLR | 13 | 1 | 44% | 75.97 | 0.0 | |||||||
| 30 | 21:15 | E 7 | 16.09 | Fair | CLR | 14 | 1 | 41% | 75.97 | 0.0 | |||||||
| 30 | 20:55 | N 7 | 16.09 | Fair | CLR | 15 | 0 | 36% | 75.92 | 0.0 | |||||||
| 30 | 20:35 | N 7 | 16.09 | Fair | CLR | 15 | 0 | 36% | 75.9 | 0.0 | |||||||
| 30 | 20:15 | NE 6 | 16.09 | Fair | CLR | 16 | 0 | 34% | 75.9 | 0.0 | |||||||
| 30 | 19:55 | NE 7 | 16.09 | Fair | CLR | 17 | 0 | 32% | 75.84 | 0.0 | |||||||
| 30 | 19:35 | SW 9 | 16.09 | Fair | CLR | 18 | 0 | 30% | 75.84 | 0.0 | |||||||
| 30 | 19:15 | NW 11 | 16.09 | Fair | CLR | 19 | 0 | 28% | 75.82 | 0.0 | |||||||
| 30 | 18:55 | NW 11 | 16.09 | Fair | CLR | 20 | 0 | 26% | 75.79 | 0.0 | |||||||
| 30 | 18:35 | NW 13 | 16.09 | Fair | CLR | 20 | 0 | 26% | 75.79 | 0.0 | |||||||
| 30 | 18:15 | NW 15 G 28 | 16.09 | Fair | CLR | 20 | 0 | 26% | 75.77 | 0.0 | |||||||
| 30 | 17:55 | W 9 | 16.09 | Partly Cloudy | SCT080 | 21 | 1 | 27% | 75.74 | 0.0 | |||||||
| 30 | 17:35 | NW 9 | 16.09 | Partly Cloudy | SCT080 | 22 | 2 | 27% | 75.74 | 0.0 | |||||||
| 30 | 17:15 | W 15 | 16.09 | Fair | CLR | 21 | 0 | 25% | 75.74 | 0.0 | |||||||
| 30 | 16:55 | W 17 G 30 | 16.09 | Fair | CLR | 22 | 1 | 25% | 75.72 | 0.0 | |||||||
| 30 | 16:35 | W 19 G 31 | 16.09 | Fair | CLR | 22 | 1 | 25% | 75.72 | 0.0 | |||||||
| 30 | 16:15 | NW 17 G 30 | 16.09 | Fair | CLR | 22 | 2 | 27% | 75.72 | 0.0 | |||||||
| 30 | 15:55 | NW 17 G 33 | 16.09 | Fair | CLR | 22 | 2 | 27% | 75.72 | 0.0 | |||||||
| 30 | 15:35 | NW 22 G 33 | 16.09 | Partly Cloudy | SCT075 | 22 | 3 | 29% | 75.72 | 0.0 | |||||||
| 30 | 15:15 | NW 15 | 16.09 | Partly Cloudy | SCT075 | 22 | 4 | 31% | 75.72 | 0.0 | |||||||
| 30 | 14:55 | W 13 | 16.09 | Fair | CLR | 22 | 4 | 31% | 75.72 | 0.0 | |||||||
| 30 | 14:35 | W 15 | 16.09 | Partly Cloudy | SCT060 | 21 | 5 | 35% | 75.72 | 0.0 | |||||||
| 30 | 14:15 | W 13 | 16.09 | Partly Cloudy | SCT060 | 20 | 5 | 38% | 75.72 | 0.0 | |||||||
| 30 | 13:55 | SW 9 G 30 | 16.09 | Partly Cloudy | SCT060 | 21 | 5 | 35% | 75.72 | 0.0 | |||||||
| 30 | 13:35 | NW 13 | 16.09 | Partly Cloudy | SCT060 | 20 | 5 | 38% | 75.74 | 0.0 | |||||||
| 30 | 13:15 | W 15 | 16.09 | Mostly Cloudy | BKN050 | 19 | 6 | 43% | 75.77 | 0.0 | |||||||
| 30 | 12:55 | NW 9 | 16.09 | Mostly Cloudy | BKN050 | 19 | 7 | 46% | 75.79 | 0.0 | |||||||
| 30 | 12:35 | W 15 | 16.09 | Mostly Cloudy | BKN050 BKN060 | 20 | 7 | 43% | 75.82 | 0.0 | |||||||
| 30 | 12:15 | W 15 | 16.09 | Mostly Cloudy | BKN050 BKN060 | 19 | 7 | 46% | 75.82 | 0.0 | |||||||
| 30 | 11:55 | W 17 G 28 | 16.09 | Partly Cloudy | SCT060 | 19 | 6 | 43% | 75.82 | 0.0 | |||||||
| 30 | 11:35 | W 9 | 16.09 | Fair | CLR | 18 | 7 | 49% | 75.82 | 0.0 | |||||||
| 30 | 11:15 | W 15 | 16.09 | Fair | CLR | 18 | 7 | 49% | 75.84 | 0.0 | |||||||
| 30 | 10:55 | W 11 | 16.09 | Fair | CLR | 17 | 10 | 64% | 75.84 | 0.0 | |||||||
| 30 | 10:35 | NW 9 | 16.09 | Fair | CLR | 16 | 11 | 72% | 75.84 | 0.0 | |||||||
| 30 | 10:15 | W 9 | 16.09 | Fair | CLR | 16 | 11 | 72% | 75.84 | 0.0 | |||||||
| 30 | 09:55 | SW 7 | 16.09 | Partly Cloudy | SCT047 | 15 | 11 | 77% | 75.84 | 0.0 | |||||||
| 30 | 09:35 | S 7 | 16.09 | Partly Cloudy | SCT047 SCT120 | 15 | 10 | 72% | 75.87 | 0.0 | |||||||
| 30 | 09:15 | SW 7 | 16.09 | Partly Cloudy | SCT050 SCT120 | 14 | 11 | 82% | 75.84 | 0.0 | |||||||
| 30 | 08:55 | S 6 | 16.09 | Overcast | OVC110 | 13 | 11 | 88% | 75.84 | 0.0 | |||||||
| 30 | 08:35 | S 6 | 16.09 | Mostly Cloudy | BKN110 | 13 | 11 | 88% | 75.84 | 0.0 | |||||||
| 30 | 08:15 | SW 6 | 16.09 | Mostly Cloudy | BKN110 | 13 | 11 | 88% | 75.79 | 0.0 | |||||||
| 30 | 07:55 | Calm | 16.09 | Mostly Cloudy | BKN120 | 12 | 12 | 100% | 75.77 | 0.0 | |||||||
| 30 | 07:35 | E 6 | 16.09 | Mostly Cloudy | BKN120 | 11 | 11 | 100% | 75.72 | 0.0 | |||||||
| 30 | 07:15 | S 13 | 16.09 | Mostly Cloudy | BKN110 | 11 | 11 | 100% | 75.74 | 0.0 | |||||||
| 30 | 06:55 | SE 9 | 16.09 | Overcast | SCT060 BKN100 OVC120 | 11 | 11 | 100% | 75.69 | 0.0 | |||||||
| 30 | 06:35 | S 19 | 16.09 | Mostly Cloudy | SCT050 SCT065 BKN110 | 11 | 11 | 100% | 75.77 | 0.0 | |||||||
| 30 | 06:15 | S 15 | 16.09 | Fair | CLR | 11 | 11 | 100% | 75.77 | 0.0 | |||||||
| 30 | 05:35 | S 9 | 16.09 | Fair | CLR | 11 | 10 | 94% | 75.67 | 0.0 | |||||||
| 30 | 05:15 | E 9 | 16.09 | Fair | CLR | 12 | 10 | 88% | 75.67 | 0.0 | |||||||
| 30 | 04:55 | NE 6 | 16.09 | Fair | CLR | 12 | 10 | 88% | 75.67 | 0.0 | |||||||
| 30 | 04:35 | S 9 | 16.09 | Fair | CLR | 12 | 11 | 94% | 75.69 | 0.0 | |||||||
| 30 | 04:15 | Calm | 16.09 | Fair | CLR | 12 | 12 | 100% | 75.69 | 0.0 | |||||||
| 30 | 03:55 | Calm | 16.09 | Fair | CLR | 12 | 12 | 100% | 75.72 | 0.0 | |||||||
| 30 | 03:35 | S 7 | 16.09 | Fair | CLR | 12 | 12 | 100% | 75.69 | 0.0 | |||||||
| 30 | 03:15 | S 7 | 16.09 | Fair | CLR | 12 | 12 | 100% | 75.69 | 0.0 | |||||||
| 30 | 02:55 | S 9 | 16.09 | Fair | CLR | 13 | 12 | 94% | 75.72 | 0.0 | |||||||
| 30 | 02:35 | S 17 | 16.09 | Fair | CLR | 12 | 12 | 100% | 75.69 | 0.0 | |||||||
| 30 | 02:15 | S 9 | 16.09 | Fair | CLR | 13 | 12 | 94% | 75.67 | 0.0 | |||||||
| 30 | 01:55 | S 11 | 16.09 | Fair | CLR | 12 | 12 | 100% | 75.69 | 0.0 | |||||||
| 30 | 01:35 | S 9 | 16.09 | Fair | CLR | 13 | 13 | 100% | 75.69 | 0.0 | |||||||
| 30 | 01:15 | S 9 | 16.09 | Fair | CLR | 13 | 13 | 100% | 75.69 | 0.0 | |||||||
| 30 | 00:55 | Calm | 16.09 | Fair | CLR | 13 | 13 | 100% | 75.69 | 0.0 | |||||||
| 30 | 00:35 | S 7 | 1.21 | Mostly Cloudy | BKN002 | 13 | 13 | 100% | 75.69 | 0.0 | |||||||
| 30 | 00:15 | S 11 | 0.40 | Overcast | OVC002 | 14 | 13 | 94% | 75.69 | 0.0 | |||||||
| 29 | 23:55 | S 19 | 0.40 | Overcast | OVC002 | 15 | 15 | 100% | 75.69 | 0.0 | 0.03 | ||||||
| 29 | 23:35 | SE 19 | 0.80 | Sky Obscured | VV005 | 15 | 15 | 100% | 75.69 | 0.0 | 0.03 | ||||||
| 29 | 23:15 | S 11 | 4.02 | Fair | CLR | 15 | 15 | 100% | 75.69 | 0.0 | |||||||
| 29 | 22:55 | S 11 | 4.02 | Partly Cloudy | SCT100 | 16 | 16 | 100% | 75.67 | 0.0 | |||||||
| 29 | 22:35 | S 11 | 1.21 | Overcast | OVC100 | 16 | 16 | 100% | 75.67 | 0.0 | |||||||
| 29 | 22:15 | S 11 | 2.41 | Mostly Cloudy | SCT005 BKN100 | 16 | 16 | 100% | 75.69 | 0.0 | |||||||
| 29 | 21:55 | S 9 | 4.83 | Partly Cloudy | SCT005 SCT100 | 16 | 16 | 100% | 75.69 | 0.0 | |||||||
| 29 | 21:35 | E 9 | 4.83 | Mostly Cloudy | SCT005 SCT043 BKN100 | 16 | 16 | 100% | 75.67 | 0.0 | |||||||
| 29 | 21:15 | SW 6 | 11.27 | Partly Cloudy | SCT043 SCT050 SCT060 | 17 | 16 | 94% | 75.64 | 0.0 | |||||||
| 29 | 20:55 | S 13 | 16.09 | Mostly Cloudy | SCT011 SCT035 BKN055 | 17 | 17 | 100% | 75.64 | 0.0 | 0.18 | ||||||
| 29 | 20:35 | S 15 | 11.27 | Overcast | SCT021 BKN046 OVC055 | 17 | 17 | 100% | 75.64 | 0.0 | 0.18 | ||||||
| 29 | 20:15 | S 17 | 3.22 | Overcast | BKN023 BKN040 OVC070 | 17 | 16 | 94% | 75.59 | 0.0 | 0.15 | ||||||
| 29 | 19:55 | E 7 | 16.09 | Mostly Cloudy | BKN021 | 18 | 16 | 88% | 75.59 | 0.0 | |||||||
| 29 | 19:35 | S 19 | 16.09 | Overcast | OVC019 | 18 | 16 | 88% | 75.59 | 0.0 | |||||||
| 29 | 19:15 | S 19 | 16.09 | Overcast | OVC017 | 18 | 16 | 88% | 75.59 | 0.0 | |||||||
| 29 | 18:55 | S 20 G 28 | 16.09 | Overcast | BKN013 OVC020 | 18 | 16 | 88% | 75.59 | 0.0 | |||||||
| 29 | 18:35 | S 20 | 16.09 | Overcast | BKN013 OVC020 | 18 | 16 | 88% | 75.59 | 0.0 | |||||||
| 29 | 18:15 | S 19 | 16.09 | Overcast | OVC011 | 18 | 16 | 88% | 75.59 | 0.0 | |||||||
| 29 | 17:55 | S 19 | 16.09 | Overcast | OVC011 | 18 | 16 | 88% | 75.62 | 0.0 | |||||||
| 29 | 17:35 | S 17 G 28 | 16.09 | Overcast | OVC013 | 18 | 16 | 88% | 75.62 | 0.0 | |||||||
| 29 | 17:15 | S 20 | 16.09 | Overcast | OVC015 | 19 | 16 | 83% | 75.64 | 0.0 | |||||||
| 29 | 16:55 | S 20 | 16.09 | Overcast | BKN015 OVC019 | 18 | 16 | 88% | 75.64 | 0.0 | |||||||
| 29 | 16:35 | S 19 | 16.09 | Overcast | BKN014 OVC019 | 19 | 16 | 83% | 75.64 | 0.0 | |||||||
| 29 | 16:15 | S 17 | 16.09 | Overcast | BKN014 OVC020 | 19 | 16 | 83% | 75.67 | 0.0 | |||||||
| 29 | 15:55 | S 24 | 16.09 | Overcast | BKN013 OVC019 | 19 | 16 | 83% | 75.72 | 0.0 | |||||||
| 29 | 15:35 | S 20 G 30 | 16.09 | Overcast | BKN009 OVC023 | 19 | 16 | 83% | 75.74 | 0.0 | |||||||
| 29 | 15:15 | SE 17 G 28 | 16.09 | Overcast | SCT009 BKN019 OVC024 | 18 | 16 | 88% | 75.77 | 0.0 | |||||||
| 29 | 14:55 | S 19 | 16.09 | Overcast | BKN009 BKN015 OVC022 | 18 | 16 | 88% | 75.77 | 0.0 | |||||||
| 29 | 14:35 | SE 7 | 16.09 | Overcast | BKN015 OVC020 | 18 | 16 | 88% | 75.79 | 0.0 | |||||||
| 29 | 14:15 | SE 7 | 16.09 | Overcast | OVC015 | 17 | 15 | 88% | 75.84 | 0.0 | |||||||
| 29 | 13:55 | S 19 | 16.09 | Overcast | OVC015 | 18 | 15 | 83% | 75.84 | 0.0 | |||||||
| 29 | 13:35 | SE 11 | 16.09 | Overcast | OVC015 | 18 | 15 | 83% | 75.87 | 0.0 | |||||||
| 29 | 13:15 | SE 11 | 16.09 | Overcast | OVC013 | 18 | 15 | 83% | 75.9 | 0.0 | |||||||
| 29 | 12:55 | SE 6 | 16.09 | Overcast | OVC011 | 17 | 15 | 88% | 75.92 | 0.0 | |||||||
| 29 | 12:35 | SE 9 | 16.09 | Overcast | OVC011 | 17 | 15 | 88% | 75.95 | 0.0 | |||||||
| 29 | 12:15 | SE 9 | 16.09 | Overcast | OVC011 | 17 | 15 | 88% | 75.95 | 0.0 | |||||||
| Date | Time (edt) | Wind (kph) | Vis. (km) | Weather | Sky Cond. | Air | Dwpt | Max. | Min. | Relative Humidity | Wind Chill (°C) | Heat Index (°C) | altimeter (cm) | sea level (mb) | 1 hr | 3 hr | 6 hr |
| 6 hour | |||||||||||||||||
| Temperature (ºC) | Pressure | Precipitation (cm) | |||||||||||||||